South Hill, VA

6:43 AM EST on December 13, 2019 (GMT -0500)
Mecklenburg-Brunswick Regional

Weather History for KAVC - September, 2019

Change the Weather History Date:

Saturday, September 21, 2019

  Actual Average (WUND) Record (WUND)
Temperature  
Mean Temperature 70 °F -  
Max Temperature 88 °F - - (-1)
Min Temperature 51 °F - - (-1)
Cooling Degree Days 4    
Growing Degree Days 20 (Base 50)    
Moisture  
Dew Point 59 °F    
Average Humidity 74    
Maximum Humidity 100    
Minimum Humidity 41    
Precipitation  
Precipitation 0.00 in - - ()
Sea Level Pressure  
Sea Level Pressure 30.30 in    
Wind  
Wind Speed 3 mph (SSW)    
Max Wind Speed 10 mph    
Max Gust Speed -    
Averages and records for this station are not official NWS values.
T = Trace of Precipitation, MM = Missing Value Source: NWS Daily Summary

Daily Weather History Graph

Daily Weather History Graph

Search for Another Location

Airport or City:

Astronomy

Sep. 21, 2019 Rise Set
Actual Time 6:59 AM EDT 7:10 PM EDT
Civil Twilight 6:33 AM EDT 7:36 PM EDT
Nautical Twilight 6:03 AM EDT 8:06 PM EDT
Astronomical Twilight 5:32 AM EDT 8:37 PM EDT
Moon 11:57 PM EDT (9/21) 1:53 PM EDT (9/21)
Length of Visible Light 13h 03m
Length of Day
12h 11m
Waning Gibbous, 55% of the Moon is Illuminated
Sep 21
Waning Gibbous
Sep 21
Last Quarter
Sep 28
New
Oct 5
First Quarter
Oct 13
Full

Hourly Weather History & Observations

Time (EDT) Temp. Heat Index Dew Point Humidity Pressure Visibility Wind Dir Wind Speed Gust Speed Precip Events Conditions
12:15 AM 53.8 °F - 53.8 °F 100% 30.34 in - Calm Calm - N/A   Unknown
12:35 AM 53.8 °F - 53.8 °F 100% 30.33 in - Calm Calm - N/A   Unknown
12:55 AM 52.7 °F - 52.7 °F 100% 30.34 in - Calm Calm - N/A   Unknown
1:15 AM 52.7 °F - 52.7 °F 100% 30.34 in - Calm Calm - N/A   Unknown
1:35 AM 54.0 °F - 53.8 °F 99% 30.34 in - Calm Calm - N/A   Unknown
1:55 AM 52.2 °F - 52.2 °F 100% 30.34 in - Calm Calm - N/A   Unknown
2:15 AM 52.2 °F - 52.2 °F 100% 30.34 in - Calm Calm - N/A   Unknown
2:35 AM 52.0 °F - 52.0 °F 100% 30.33 in - Calm Calm - N/A   Unknown
2:55 AM 53.8 °F - 53.8 °F 100% 30.33 in - Calm Calm - N/A   Unknown
3:15 AM 52.0 °F - 52.0 °F 100% 30.33 in - Calm Calm - N/A   Unknown
3:35 AM 51.6 °F - 51.6 °F 100% 30.32 in - SSW 3.5 mph - N/A   Unknown
3:55 AM 52.0 °F - 52.0 °F 100% 30.32 in - SW 3.5 mph - N/A   Unknown
4:15 AM 52.2 °F - 52.2 °F 100% 30.33 in - Calm Calm - N/A   Unknown
4:35 AM 52.5 °F - 52.5 °F 100% 30.32 in - Calm Calm - N/A   Unknown
4:55 AM 52.5 °F - 52.5 °F 100% 30.32 in - Calm Calm - N/A   Unknown
5:15 AM 52.9 °F - 52.9 °F 100% 30.32 in - SSW 3.5 mph - N/A   Unknown
5:35 AM 53.6 °F - 53.6 °F 100% 30.32 in - SSW 3.5 mph - N/A   Unknown
5:55 AM 52.3 °F - 52.3 °F 100% 30.32 in - Calm Calm - N/A   Unknown
6:15 AM 54.0 °F - 54.0 °F 100% 30.33 in - SSW 3.5 mph - N/A   Unknown
6:35 AM 55.2 °F - 54.7 °F 98% 30.33 in - SSW 4.6 mph - N/A   Unknown
6:55 AM 55.4 °F - 54.9 °F 98% 30.34 in - SSW 4.6 mph - N/A   Unknown
7:15 AM 55.6 °F - 55.0 °F 98% 30.34 in - SSW 4.6 mph - N/A   Unknown
7:35 AM 55.9 °F - 55.4 °F 98% 30.34 in - Calm Calm - N/A   Unknown
7:55 AM 56.7 °F - 56.3 °F 99% 30.35 in - SSW 4.6 mph - N/A   Unknown
8:15 AM 58.8 °F - 57.2 °F 94% 30.35 in - SSW 3.5 mph - N/A   Unknown
8:35 AM 61.7 °F - 59.2 °F 91% 30.35 in - SSW 3.5 mph - N/A   Unknown
8:55 AM 65.7 °F - 59.2 °F 80% 30.35 in - SW 4.6 mph - N/A   Clear
9:15 AM 69.1 °F - 59.0 °F 70% 30.35 in - SSW 6.9 mph - N/A   Clear
9:35 AM 70.2 °F - 58.5 °F 66% 30.35 in - SW 4.6 mph - N/A   Clear
9:55 AM 71.6 °F - 58.3 °F 63% 30.35 in - SW 5.8 mph - N/A   Clear
10:15 AM 73.2 °F - 59.0 °F 61% 30.35 in - SSW 6.9 mph - N/A   Clear
10:35 AM 74.8 °F - 59.7 °F 59% 30.34 in - SW 5.8 mph - N/A   Clear
10:55 AM 76.6 °F - 60.3 °F 57% 30.34 in - WSW 5.8 mph - N/A   Clear
11:15 AM 78.4 °F - 60.3 °F 53% 30.34 in - WSW 5.8 mph - N/A   Clear
11:35 AM 79.9 °F - 60.4 °F 51% 30.34 in - WSW 5.8 mph - N/A   Clear
12:35 PM 82.9 °F 83.3 °F 61.0 °F 47% 30.31 in - South 10.4 mph - N/A   Clear
12:55 PM 83.7 °F 83.9 °F 60.6 °F 46% 30.30 in - SW 6.9 mph - N/A   Clear
1:15 PM 83.8 °F 84.1 °F 60.8 °F 46% 30.30 in - South 9.2 mph - N/A   Clear
1:35 PM 85.5 °F 85.7 °F 61.2 °F 44% 30.29 in - SSW 8.1 mph - N/A   Clear
1:55 PM 85.3 °F 85.7 °F 61.5 °F 45% 30.28 in - South 9.2 mph - N/A   Clear
2:15 PM 86.2 °F 86.6 °F 61.9 °F 44% 30.28 in - SSW 5.8 mph - N/A   Clear
2:35 PM 86.7 °F 87.0 °F 61.7 °F 43% 30.27 in - SSW 8.1 mph - N/A   Scattered Clouds
2:55 PM 86.7 °F 87.0 °F 61.9 °F 43% 30.27 in - SSW 6.9 mph - N/A   Scattered Clouds
3:15 PM 86.9 °F 87.2 °F 62.1 °F 43% 30.26 in - West 4.6 mph - N/A   Mostly Cloudy
3:35 PM 86.9 °F 87.0 °F 61.5 °F 42% 30.25 in - West 3.5 mph - N/A   Scattered Clouds
3:55 PM 88.2 °F 88.4 °F 62.1 °F 41% 30.24 in - West 8.1 mph - N/A   Scattered Clouds
4:15 PM 86.7 °F 87.0 °F 61.9 °F 43% 30.24 in - WSW 3.5 mph - N/A   Scattered Clouds
4:35 PM 86.9 °F 87.2 °F 61.7 °F 43% 30.23 in - South 5.8 mph - N/A   Mostly Cloudy
4:55 PM 87.3 °F 87.5 °F 61.5 °F 42% 30.23 in - Calm Calm - N/A   Scattered Clouds
5:15 PM 88.2 °F 88.4 °F 62.1 °F 41% 30.23 in - South 6.9 mph - N/A   Scattered Clouds
5:35 PM 86.5 °F 86.8 °F 61.7 °F 43% 30.23 in - SSW 8.1 mph - N/A   Scattered Clouds
6:00 PM 85.3 °F 86.1 °F 62.8 °F 47% 30.23 in - SSE 4.6 mph - N/A   Clear
6:15 PM 84.4 °F 85.4 °F 63.3 °F 49% 30.22 in - SE 5.8 mph - N/A   Clear
6:35 PM 82.6 °F 83.8 °F 63.5 °F 52% 30.23 in - South 4.6 mph - N/A   Clear
6:55 PM 80.6 °F 82.2 °F 64.0 °F 57% 30.23 in - SSE 5.8 mph - N/A   Clear
7:15 PM 78.4 °F - 64.2 °F 62% 30.23 in - SSE 4.6 mph - N/A   Clear
7:35 PM 76.8 °F - 64.4 °F 65% 30.24 in - SSE 4.6 mph - N/A   Clear
7:55 PM 76.1 °F - 64.6 °F 67% 30.24 in - SSE 3.5 mph - N/A   Clear
8:15 PM 75.2 °F - 64.6 °F 69% 30.24 in - SSE 5.8 mph - N/A   Clear
8:55 PM 73.4 °F - 64.6 °F 74% 30.25 in - SSE 5.8 mph - N/A   Clear
9:15 PM 73.0 °F - 64.4 °F 74% 30.25 in - South 6.9 mph - N/A   Clear
9:35 PM 72.3 °F - 64.4 °F 76% 30.26 in - South 4.6 mph - N/A   Clear
9:55 PM 70.9 °F - 64.4 °F 80% 30.27 in - South 4.6 mph - N/A   Clear
10:15 PM 70.2 °F - 64.2 °F 81% 30.27 in - South 3.5 mph - N/A   Clear
10:35 PM 70.0 °F - 64.0 °F 81% 30.28 in - South 3.5 mph - N/A   Clear
10:55 PM 69.4 °F - 64.0 °F 83% 30.28 in - South 4.6 mph - N/A   Clear
11:15 PM 69.1 °F - 63.9 °F 83% 30.28 in - South 4.6 mph - N/A   Clear
11:35 PM 69.3 °F - 63.9 °F 83% 30.28 in - SSW 4.6 mph - N/A   Clear
11:55 PM 68.7 °F - 63.7 °F 84% 30.28 in - South 3.5 mph - N/A   Clear